User: anonymous   Login
Location: downtown San Diego
(32.7310°N, 117.1990°W)
Time: 15:55:38
(UTC-08:00)
Language:

ATLAS CENTAUR R/B - Orbit

View from above orbital plane
View from above orbital plane
View from above satellite
View from above satellite

Ground track
Ground track

The orbit data is extracted from the following two-line orbital elements,

1 38770U 12048N   19324.19998676 0.00000764  00000-0  48494-4 0    07
2 38770  64.6680 104.7227 0168144 207.6647 152.2876 14.97592028    04
Epoch (UTC): 20 November 2019 04:47:58
Eccentricity: 0.0168144
inclination: 64.6680°
perigee height: 457 km
apogee height: 691 km
right ascension of ascending node: 104.7227°
argument of perigee: 207.6647°
revolutions per day: 14.97592028
mean anomaly at epoch: 152.2876°
orbit number at epoch: 0

The dashed part of the orbit path shows where the satellite is in the earth's shadow,  

DLR